This is the latest recevied weather packets stored in our database for station/object KC3AWA. If no packets are shown the sender has not sent any weather packets the latest 10 day(s).
| Time | Temp. | Humidity | Pressure | Rain* | Wind** | Luminosity | Snow |
|---|---|---|---|---|---|---|---|
| 1777723020 | 1.67° C | 94% | 1016.8 hPa | 0 mm | - | 29 W/m² | - |
| 1777722716 | 1.67° C | 94% | 1016.6 hPa | 0 mm | - | 34 W/m² | - |
| 1777722412 | 1.67° C | 95% | 1016.6 hPa | 0 mm | - | 37 W/m² | - |
| 1777722109 | 1.67° C | 95% | 1016.6 hPa | 0 mm | - | 33 W/m² | - |
| 1777721806 | 1.67° C | 96% | 1016.7 hPa | 0 mm | - | 36 W/m² | - |
| 1777721504 | 1.67° C | 96% | 1016.7 hPa | 0 mm | - | 30 W/m² | - |
| 1777721202 | 1.67° C | 96% | 1016.5 hPa | 0 mm | - | 23 W/m² | - |
| 1777720899 | 1.67° C | 97% | 1016.5 hPa | 0 mm | - | 27 W/m² | - |
| 1777720597 | 1.67° C | 97% | 1016.4 hPa | 0 mm | - | 28 W/m² | - |
| 1777720294 | 1.67° C | 97% | 1016.5 hPa | 0 mm | - | 19 W/m² | - |
| 1777719992 | 1.67° C | 97% | 1016.4 hPa | 0 mm | - | 15 W/m² | - |
| 1777719689 | 1.67° C | 97% | 1016.3 hPa | 0 mm | - | 13 W/m² | - |
| 1777719386 | 1.67° C | 97% | 1016.3 hPa | 0 mm | - | 13 W/m² | - |
| 1777719083 | 1.67° C | 98% | 1016.1 hPa | 0 mm | - | 10 W/m² | - |
| 1777718780 | 1.67° C | 98% | 1016.1 hPa | 0 mm | - | 9 W/m² | - |
| 1777718478 | 1.67° C | 98% | 1016.1 hPa | 0 mm | - | 7 W/m² | - |
| 1777718175 | 1.67° C | 98% | 1016.3 hPa | 0 mm | - | 4 W/m² | - |
| 1777717873 | 1.67° C | 98% | 1016.2 hPa | 0 mm | - | 3 W/m² | - |
| 1777717570 | 1.67° C | 98% | 1016.2 hPa | 0 mm | - | 3 W/m² | - |
| 1777717266 | 1.67° C | 98% | 1016.4 hPa | 0 mm | - | 2 W/m² | - |
| 1777716964 | 1.67° C | 98% | 1016.1 hPa | 0 mm | - | 1 W/m² | - |
| 1777716662 | 1.67° C | 98% | 1016.2 hPa | 0 mm | - | 1 W/m² | - |
| 1777716361 | 1.67° C | 98% | 1016.3 hPa | 0 mm | - | 0 W/m² | - |
| 1777716059 | 1.67° C | 98% | 1016 hPa | 0 mm | - | 0 W/m² | - |
| 1777715756 | 1.67° C | 98% | 1016.2 hPa | 0 mm | - | 0 W/m² | - |
* Rain latest hour (hover to see other rain measurements)
** Current wind speed in m/s (hover to see current wind gust speed)